Location: �chenoz-la-M�line
(47.6009°N, 6.1354°E)
Time: 12:13:41
(UTC+00:00)

COSMOS 2428 - Pass Details

Date: 27 January 2021
Orbit: 848 x 855 km, 70.9° (Epoch: 03 March)

Event Time Altitude Azimuth Distance (km) Brightness Sun altitude
Exits shadow 04:25:07 29° 352° (N) 1,514 3.9 -27.4°
Drops below altitude 10° 04:28:19 10° 17° (NNE) 2,483 5.3 -26.9°
Sets 04:30:56 0° 25° (NNE) 3,423 6.2 -26.4°
